Location: Emory University Observatory
(33.7903°N, 84.3267°W)
Time: 14:04:22
(UTC-04:00)

Vanguard 2 - All Passes

Search period start: 20 October 2017 00:00
Search period end: 30 October 2017 00:00
Orbit: 554 x 2939 km, 32.9° (Epoch: 19 October)

Date Brightness Start Highest point End Pass type
(mag) Time Alt. Az. Time Alt. Az. Time Alt. Az.
20 Oct - 06:38:46 10° SSW 06:52:00 27° SE 07:02:50 10° E visible
20 Oct - 08:47:37 10° SW 09:03:25 55° SSE 09:13:48 10° E daylight
20 Oct - 11:00:30 10° WSW 11:14:17 81° S 11:22:18 10° E daylight
20 Oct - 13:14:05 10° W 13:24:08 78° S 13:30:02 10° ESE daylight
20 Oct - 15:26:32 10° W 15:32:20 30° SSW 15:36:27 10° SSE daylight
21 Oct - 04:54:51 10° SSE 04:58:52 11° SE 05:02:47 10° SE visible
21 Oct - 06:55:18 10° SSW 07:10:13 35° SSE 07:21:58 10° E visible
21 Oct - 09:05:34 10° WSW 09:21:43 64° SSE 09:32:06 10° E daylight
21 Oct - 11:19:03 10° W 11:32:37 85° S 11:40:28 10° E daylight
21 Oct - 13:32:36 10° W 13:42:18 68° SSW 13:48:02 10° ESE daylight
21 Oct - 15:45:26 10° W 15:50:03 20° SW 15:53:37 10° S daylight
22 Oct - 05:07:09 10° S 05:17:01 17° SE 05:26:15 10° ESE visible
22 Oct - 07:12:22 10° SW 07:28:26 44° SSE 07:40:43 10° E visible
22 Oct - 09:23:45 10° WSW 09:40:02 73° SSE 09:50:19 10° E daylight
22 Oct - 11:37:39 10° W 11:50:56 86° S 11:58:36 10° E daylight
22 Oct - 13:51:07 10° W 14:00:21 56° SSW 14:05:56 10° SE daylight
22 Oct - 16:05:08 10° WSW 16:07:41 13° SW 16:09:54 10° SSW daylight
23 Oct - 05:22:24 10° S 05:35:07 25° SE 05:46:42 10° E visible
23 Oct - 07:29:50 10° SW 07:46:41 53° SSE 07:59:14 10° E daylight
23 Oct - 09:42:08 10° WSW 09:58:24 80° SSE 10:08:31 10° E daylight
23 Oct - 11:56:16 10° W 12:09:14 83° S 12:16:43 10° E daylight
23 Oct - 14:09:41 10° W 14:18:17 43° SSW 14:23:40 10° SE daylight
24 Oct - 05:38:38 10° SSW 05:53:11 32° SE 06:06:12 10° E visible
24 Oct - 07:47:36 10° SW 08:04:58 62° SSE 08:17:36 10° E daylight
24 Oct - 10:00:39 10° W 10:16:47 85° S 10:26:42 10° E daylight
24 Oct - 12:14:52 10° W 12:27:30 77° SSW 12:34:47 10° ESE daylight
24 Oct - 14:28:25 10° W 14:36:04 32° SW 14:41:07 10° SSE daylight
25 Oct - 03:52:54 10° SSE 04:00:13 14° SE 04:07:36 10° ESE visible
25 Oct - 05:55:27 10° SSW 06:11:16 41° SSE 06:25:11 10° E visible
25 Oct - 08:05:39 10° WSW 08:23:18 71° SSE 08:35:54 10° E daylight
25 Oct - 10:19:15 10° W 10:35:11 87° S 10:44:53 10° E daylight
25 Oct - 12:33:26 10° W 12:45:40 67° SSW 12:52:47 10° ESE daylight
25 Oct - 14:47:25 10° W 14:53:42 22° SW 14:58:13 10° S daylight
26 Oct - 04:07:07 10° S 04:18:08 21° SE 04:29:16 10° E visible
26 Oct - 06:12:42 10° SW 06:29:24 50° SSE 06:43:51 10° E visible
26 Oct - 08:23:53 10° WSW 08:41:40 78° SSE 08:54:08 10° E daylight
26 Oct - 10:37:53 10° W 10:53:34 86° S 11:03:03 10° E daylight
26 Oct - 12:52:01 10° W 13:03:42 56° SSW 13:10:38 10° SE daylight
26 Oct - 15:07:06 10° WSW 15:11:13 15° SW 15:14:34 10° SSW daylight
27 Oct - 04:22:54 10° S 04:36:01 28° SE 04:49:19 10° E visible
27 Oct - 06:30:17 10° SW 06:47:35 59° SSE 07:02:20 10° E visible
27 Oct - 08:42:19 10° WSW 09:00:06 83° S 09:12:23 10° E daylight
27 Oct - 10:56:31 10° W 11:11:56 82° S 11:21:11 10° ESE daylight
27 Oct - 13:10:40 10° W 13:21:35 45° SSW 13:28:17 10° SE daylight
28 Oct - 04:39:26 10° SSW 04:53:55 36° SE 05:08:37 10° E visible
28 Oct - 06:48:09 10° SW 07:05:52 67° SSE 07:20:43 10° E visible
28 Oct - 09:00:51 10° W 09:18:34 86° S 09:30:38 10° E daylight
28 Oct - 11:15:08 10° W 11:30:13 76° SSW 11:39:16 10° ESE daylight
28 Oct - 13:29:28 10° W 13:39:19 34° SW 13:45:41 10° SSE daylight
29 Oct - 02:53:21 10° SSE 03:01:24 16° SE 03:10:05 10° ESE visible
29 Oct - 04:56:28 10° SSW 05:11:54 45° SE 05:27:31 10° E visible
29 Oct - 07:06:15 10° WSW 07:24:13 75° SSE 07:39:03 10° E visible
29 Oct - 09:19:26 10° W 09:37:02 87° S 09:48:51 10° E daylight
29 Oct - 11:33:44 10° W 11:48:23 67° SSW 11:57:13 10° ESE daylight
29 Oct - 13:48:34 10° W 13:56:54 25° SW 14:02:43 10° S daylight
